Content
SEND FEEDBACK

Daily
Averages
Monthly
Summary
United States of America

SAN FRANCISCO, CALIFORNIA


Home > North America > United States > California
Elevation: 128 feet     Latitude: 37 46N     Longitude: 122 26W

WEATHER
 
SELECT A DAY
Number of Records: 184,682;   Date Range: 1/1/95 - 7/7/14
 
SHARE

PRINT THIS DATA

[ ← Previous Day ]
WEATHER ALMANAC - FEBRUARY 28, 2013
[ Next Day → ]
[ °C ]   °F
Weather ElementAverageHighLow
Temperature52.3 °F60.1 °F (1:56 pm)48 °F (1:56 am)
Dewpoint46.8 °F48.9 °F (9:56 am)44.1 °F (1:56 am)
Humidity81.9 %93 % (8:56 pm)67 % (1:56 pm)
Barometer30.43 in30.47 in (9:56 am)30.39 in (2:56 am)
Wind Speed10.1 mph21.9 mph (3:56 pm)
Weather ElementAverage
Visibility9.8 mi
Wind DirectionSSW (209.1 °)

Weather ElementTotal
Precipitation---
Heating Degree Days11 (Base 65)
Growing Degree Days4.1 (Base 50)
Averaged from 23 records on February 28, 2013
WEATHER CONDITIONS BREAKOUT
WIND DIRECTION BREAKOUT
WEATHER BY HOUR - FEBRUARY 28, 2013
[ °C ]   °F
Local TimeTemperatureDewpointHumidityBarometerVisibilityWind DirectionWind SpeedGust SpeedPrecipitationEventsConditions
1:56 AM48.0 °F44.1 °F86 %30.40 in10.0 miCalmMostly Cloudy
2:56 AM48.0 °F44.1 °F86 %30.39 in10.0 miCalmMostly Cloudy
3:56 AM48.9 °F45.0 °F86 %30.39 in10.0 miWSW (250°)4.6 mphMostly Cloudy
4:56 AM48.0 °F44.1 °F86 %30.40 in10.0 miCalmScattered Clouds
5:56 AM48.0 °F44.1 °F86 %30.42 in10.0 miSouth (170°)3.5 mphScattered Clouds
6:56 AM48.0 °F44.1 °F86 %30.43 in10.0 miCalmMostly Cloudy
7:56 AM48.9 °F44.1 °F83 %30.44 in10.0 miSSE (160°)4.6 mphMostly Cloudy
8:56 AM54.0 °F46.9 °F77 %30.46 in10.0 miCalmScattered Clouds
9:56 AM57.0 °F48.9 °F74 %30.47 in10.0 miWest (280°)11.5 mphPartly Cloudy
10:56 AM55.9 °F48.9 °F77 %30.46 in10.0 miWest (280°)12.7 mphPartly Cloudy
11:56 AM59.0 °F48.9 °F69 %30.45 in10.0 miWNW (290°)18.4 mphPartly Cloudy
12:56 PM57.0 °F48.9 °F74 %30.44 in10.0 miWNW (290°)15.0 mphPartly Cloudy
1:56 PM60.1 °F48.9 °F67 %30.42 in10.0 miWNW (290°)16.1 mphMostly Cloudy
2:56 PM57.9 °F48.0 °F70 %30.42 in10.0 miWest (280°)19.6 mphScattered Clouds
3:56 PM57.0 °F48.0 °F72 %30.41 in10.0 miWest (280°)21.9 mphMostly Cloudy
4:56 PM55.9 °F48.0 °F75 %30.40 in10.0 miWest (280°)16.1 mphMostly Cloudy
5:56 PM52.0 °F48.0 °F86 %30.41 in9.0 miWest (270°)18.4 mphFogScattered Clouds
6:56 PM51.1 °F48.0 °F89 %30.42 in9.0 miWest (270°)19.6 mphFogMostly Cloudy
7:56 PM51.1 °F48.0 °F89 %30.43 in9.0 miWest (280°)16.1 mphFogScattered Clouds
8:56 PM50.0 °F48.0 °F93 %30.44 in9.0 miWNW (290°)15.0 mphFogScattered Clouds
9:56 PM50.0 °F46.9 °F89 %30.45 in9.0 miWNW (290°)9.2 mphFogScattered Clouds
10:56 PM48.9 °F46.9 °F93 %30.45 in10.0 miWNW (290°)6.9 mphFogPartly Cloudy
11:56 PM48.9 °F46.0 °F90 %30.44 in10.0 miWest (270°)3.5 mphFogPartly Cloudy
Hourly data recorded from KSFO, located miles away from San Francisco, California







STORIES FROM OUR PARTNERS